This is the latest recevied weather packets stored in our database for station/object KK6LVQ-13. If no packets are shown the sender has not sent any weather packets the latest 10 day(s).
| Time | Temp. | Humidity | Pressure | Rain* | Wind** | Luminosity | Snow |
|---|---|---|---|---|---|---|---|
| 1778111945 | 19.44° C | 71% | 1022.4 hPa | 0 mm | - | 404 W/m² | - |
| 1778111643 | 20° C | 70% | 1022.3 hPa | 0 mm | - | 420 W/m² | - |
| 1778111338 | 20° C | 70% | 1022.4 hPa | 0 mm | - | 436 W/m² | - |
| 1778111036 | 20° C | 70% | 1022.2 hPa | 0 mm | - | 451 W/m² | - |
| 1778110734 | 20° C | 69% | 1022.6 hPa | 0 mm | - | 465 W/m² | - |
| 1778110430 | 20.56° C | 69% | 1022.4 hPa | 0 mm | - | 480 W/m² | - |
| 1778110126 | 20° C | 69% | 1022.7 hPa | 0 mm | - | 495 W/m² | - |
| 1778109822 | 20.56° C | 68% | 1022.7 hPa | 0 mm | - | 509 W/m² | - |
| 1778109513 | 20.56° C | 68% | 1022.4 hPa | 0 mm | - | 520 W/m² | - |
| 1778109211 | 20° C | 69% | 1022.6 hPa | 0 mm | - | 536 W/m² | - |
| 1778108908 | 20.56° C | 69% | 1022.7 hPa | 0 mm | - | 549 W/m² | - |
| 1778108605 | 20.56° C | 68% | 1022.6 hPa | 0 mm | - | 564 W/m² | - |
| 1778108301 | 20.56° C | 67% | 1022.9 hPa | 0 mm | - | 578 W/m² | - |
| 1778107998 | 20.56° C | 67% | 1022.9 hPa | 0 mm | - | 590 W/m² | - |
| 1778107695 | 20.56° C | 67% | 1022.8 hPa | 0 mm | - | 602 W/m² | - |
| 1778107392 | 21.11° C | 66% | 1022.7 hPa | 0 mm | - | 614 W/m² | - |
| 1778107089 | 21.11° C | 66% | 1022.7 hPa | 0 mm | - | 625 W/m² | - |
| 1778106784 | 21.67° C | 66% | 1022.9 hPa | 0 mm | - | 636 W/m² | - |
| 1778106481 | 21.67° C | 65% | 1022.8 hPa | 0 mm | - | 647 W/m² | - |
| 1778106177 | 21.67° C | 65% | 1022.9 hPa | 0 mm | - | 657 W/m² | - |
| 1778105875 | 21.67° C | 64% | 1023.1 hPa | 0 mm | - | 668 W/m² | - |
| 1778105572 | 21.67° C | 64% | 1022.9 hPa | 0 mm | - | 676 W/m² | - |
| 1778105269 | 22.22° C | 63% | 1022.9 hPa | 0 mm | - | 686 W/m² | - |
| 1778104958 | 22.22° C | 63% | 1023 hPa | 0 mm | - | 694 W/m² | - |
| 1778104656 | 22.78° C | 62% | 1023.2 hPa | 0 mm | - | 702 W/m² | - |
* Rain latest hour (hover to see other rain measurements)
** Current wind speed in m/s (hover to see current wind gust speed)